MUOS-5

Last updated on Thu Nov 21 2024 00:02:43 GMT+0000 (Coordinated Universal Time)

1 41622U 16041A 24325.45600130 -.00000157 00000+0 00000+0 0 9994 2 41622 3.5115 296.8362 0199211 257.2844 284.9991 1.00271177 31331
UTC large
Height (km)
Speed (km/s)
/
Latitude / Longitude
Inclination (degrees)
Orbital Period (minutes)
Azimuth
Elevation
Range (km)
Doppler Factor

Next 0 passes for location: London (51.5072 / 0.1276)

Sorry there are no passes over London.